When you browse on this site, cookies collect data to enhance your experience and personalize the content and advertising you see.
Visit our Privacy Policy to learn more. By continuing to use the site, you agree to this use of cookies and data.
  • In Hungary
  • List of Countries
  • For 7 days
  • Water Temperature
  • Satellite Maps
  • Weather Map
  • News
  • Weather Widgets
  • user-avatar
    Login

    Hourly Weather Matagalpa

    Today, 18 November, Sunday

    Time Temperature Precipitation Wind Pressure Humidity
    00:00 +19°C° 0 mm 3 mps 681 mmHg 91%
    01:00 +19°C° 0 mm 3 mps 681 mmHg 91%
    02:00 +19°C° 0 mm 2 mps 681 mmHg 91%
    03:00 +19°C° 0 mm 2 mps 681 mmHg 91%
    04:00 +19°C° 0 mm 2 mps 681 mmHg 91%
    05:00 +19°C° 0 mm 2 mps 681 mmHg 91%
    06:00 +19°C° 0 mm 2 mps 681 mmHg 92%
    07:00 +21°C° 0 mm 3 mps 682 mmHg 85%
    08:00 +22°C° 0 mm 4 mps 682 mmHg 78%
    09:00 +25°C° 0 mm 4 mps 683 mmHg 71%
    10:00 +26°C° 0 mm 5 mps 683 mmHg 69%
    11:00 +27°C° 0 mm 5 mps 682 mmHg 66%
    12:00 +27°C° 0 mm 5 mps 682 mmHg 63%
    13:00 +27°C° 0.1 mm 5 mps 682 mmHg 64%
    14:00 +27°C° 0.1 mm 5 mps 681 mmHg 65%
    15:00 +27°C° 0.1 mm 5 mps 681 mmHg 66%
    16:00 +25°C° 0 mm 4 mps 681 mmHg 73%
    17:00 +24°C° 0 mm 3 mps 681 mmHg 79%
    18:00 +21°C° 0 mm 2 mps 681 mmHg 86%
    19:00 +21°C° 0 mm 2 mps 681 mmHg 88%
    20:00 +20°C° 0 mm 2 mps 681 mmHg 89%
    21:00 +20°C° 0 mm 2 mps 682 mmHg 91%
    22:00 +20°C° 0 mm 2 mps 682 mmHg 92%
    23:00 +19°C° 0 mm 2 mps 681 mmHg 92%

    Tomorrow, 19 November, Monday

    Time Temperature Precipitation Wind Pressure Humidity
    00:00 +19°C° 0 mm 2 mps 681 mmHg 93%
    01:00 +19°C° 0 mm 2 mps 681 mmHg 92%
    02:00 +19°C° 0 mm 2 mps 681 mmHg 92%
    03:00 +19°C° 0 mm 2 mps 680 mmHg 92%
    04:00 +19°C° 0 mm 2 mps 681 mmHg 92%
    05:00 +19°C° 0 mm 2 mps 681 mmHg 92%
    06:00 +18°C° 0 mm 2 mps 681 mmHg 92%
    07:00 +20°C° 0 mm 3 mps 682 mmHg 86%
    08:00 +22°C° 0 mm 4 mps 682 mmHg 79%
    09:00 +25°C° 0 mm 4 mps 683 mmHg 73%
    10:00 +25°C° 0 mm 4 mps 683 mmHg 70%
    11:00 +26°C° 0 mm 5 mps 682 mmHg 66%
    12:00 +27°C° 0 mm 5 mps 682 mmHg 63%
    13:00 +27°C° 0.1 mm 4 mps 682 mmHg 64%
    14:00 +27°C° 0.1 mm 4 mps 681 mmHg 64%
    15:00 +27°C° 0.1 mm 4 mps 681 mmHg 65%
    16:00 +25°C° 0 mm 3 mps 680 mmHg 72%
    17:00 +24°C° 0 mm 3 mps 680 mmHg 79%
    18:00 +21°C° 0 mm 2 mps 680 mmHg 85%
    19:00 +20°C° 0 mm 2 mps 681 mmHg 88%
    20:00 +20°C° 0 mm 2 mps 681 mmHg 90%
    21:00 +19°C° 0 mm 2 mps 682 mmHg 92%
    22:00 +19°C° 0 mm 2 mps 682 mmHg 92%
    23:00 +19°C° 0 mm 2 mps 682 mmHg 93%

    Day after tomorrow, 20 November, Tuesday

    Time Temperature Precipitation Wind Pressure Humidity
    00:00 +19°C° 0 mm 2 mps 681 mmHg 93%
    01:00 +19°C° 0 mm 2 mps 681 mmHg 93%
    02:00 +19°C° 0 mm 2 mps 681 mmHg 94%
    03:00 +19°C° 0 mm 2 mps 680 mmHg 94%
    04:00 +19°C° 0 mm 2 mps 681 mmHg 93%
    05:00 +19°C° 0 mm 2 mps 681 mmHg 92%
    06:00 +19°C° 0 mm 2 mps 681 mmHg 92%
    07:00 +20°C° 0 mm 3 mps 682 mmHg 87%
    08:00 +21°C° 0 mm 3 mps 683 mmHg 81%
    09:00 +23°C° 0 mm 4 mps 683 mmHg 76%
    10:00 +25°C° 0.1 mm 4 mps 683 mmHg 72%
    11:00 +26°C° 0.1 mm 4 mps 683 mmHg 69%
    12:00 +27°C° 0.1 mm 5 mps 682 mmHg 65%
    13:00 +26°C° 0.2 mm 4 mps 682 mmHg 67%
    14:00 +26°C° 0.2 mm 4 mps 681 mmHg 70%
    15:00 +26°C° 0.2 mm 4 mps 681 mmHg 72%
    16:00 +23°C° 0.1 mm 4 mps 681 mmHg 77%
    17:00 +22°C° 0.1 mm 3 mps 681 mmHg 83%
    18:00 +21°C° 0.1 mm 2 mps 681 mmHg 88%
    19:00 +20°C° 0 mm 2 mps 682 mmHg 89%
    20:00 +20°C° 0 mm 2 mps 682 mmHg 90%
    21:00 +20°C° 0 mm 2 mps 683 mmHg 91%
    22:00 +20°C° 0 mm 2 mps 683 mmHg 91%
    23:00 +19°C° 0 mm 2 mps 682 mmHg 91%

    21 November, Wednesday

    Time Temperature Precipitation Wind Pressure Humidity
    00:00 +19°C° 0 mm 2 mps 682 mmHg 91%
    01:00 +19°C° 0 mm 2 mps 682 mmHg 91%
    02:00 +19°C° 0 mm 2 mps 682 mmHg 91%
    03:00 +19°C° 0 mm 2 mps 681 mmHg 90%
    04:00 +19°C° 0 mm 2 mps 681 mmHg 90%
    05:00 +19°C° 0 mm 2 mps 682 mmHg 90%
    06:00 +19°C° 0 mm 2 mps 682 mmHg 90%
    07:00 +20°C° 0 mm 3 mps 683 mmHg 85%
    08:00 +21°C° 0 mm 4 mps 683 mmHg 80%
    09:00 +23°C° 0 mm 5 mps 684 mmHg 75%
    10:00 +25°C° 0 mm 5 mps 684 mmHg 69%
    11:00 +26°C° 0 mm 5 mps 683 mmHg 64%
    12:00 +27°C° 0 mm 5 mps 683 mmHg 58%
    13:00 +27°C° 0 mm 5 mps 682 mmHg 58%
    14:00 +27°C° 0 mm 5 mps 681 mmHg 59%
    15:00 +27°C° 0 mm 4 mps 681 mmHg 59%
    16:00 +25°C° 0 mm 4 mps 681 mmHg 64%
    17:00 +24°C° 0 mm 3 mps 681 mmHg 69%
    18:00 +23°C° 0 mm 2 mps 681 mmHg 74%
    19:00 +21°C° 0 mm 2 mps 682 mmHg 77%
    20:00 +20°C° 0 mm 2 mps 682 mmHg 79%
    21:00 +20°C° 0 mm 2 mps 683 mmHg 82%
    22:00 +19°C° 0 mm 2 mps 683 mmHg 85%
    23:00 +19°C° 0 mm 2 mps 682 mmHg 88%

    22 November, Thursday

    Time Temperature Precipitation Wind Pressure Humidity
    00:00 +18°C° 0 mm 2 mps 682 mmHg 91%
    01:00 +18°C° 0 mm 2 mps 681 mmHg 92%
    02:00 +18°C° 0 mm 2 mps 681 mmHg 92%
    03:00 +17°C° 0 mm 2 mps 681 mmHg 93%
    04:00 +17°C° 0 mm 2 mps 681 mmHg 93%
    05:00 +17°C° 0 mm 2 mps 681 mmHg 93%
    06:00 +18°C° 0 mm 2 mps 681 mmHg 93%
    07:00 +20°C° 0 mm 3 mps 682 mmHg 84%
    08:00 +22°C° 0 mm 3 mps 683 mmHg 75%
    09:00 +25°C° 0 mm 4 mps 684 mmHg 66%
    10:00 +26°C° 0 mm 4 mps 683 mmHg 62%
    11:00 +27°C° 0 mm 4 mps 683 mmHg 58%
    12:00 +28°C° 0 mm 5 mps 682 mmHg 55%
    13:00 +28°C° 0 mm 4 mps 682 mmHg 55%
    14:00 +28°C° 0 mm 4 mps 681 mmHg 56%
    15:00 +28°C° 0 mm 4 mps 680 mmHg 57%
    16:00 +26°C° 0 mm 3 mps 681 mmHg 64%
    17:00 +24°C° 0 mm 3 mps 681 mmHg 71%
    18:00 +21°C° 0 mm 2 mps 681 mmHg 79%
    19:00 +21°C° 0 mm 2 mps 681 mmHg 82%
    20:00 +20°C° 0 mm 2 mps 682 mmHg 85%
    21:00 +20°C° 0 mm 2 mps 682 mmHg 88%
    22:00 +19°C° 0 mm 2 mps 682 mmHg 90%
    23:00 +19°C° 0 mm 2 mps 681 mmHg 91%

    23 November, Friday

    Time Temperature Precipitation Wind Pressure Humidity
    00:00 +19°C° 0 mm 2 mps 681 mmHg 93%
    01:00 +18°C° 0 mm 2 mps 681 mmHg 93%
    02:00 +18°C° 0 mm 2 mps 680 mmHg 94%
    03:00 +18°C° 0 mm 2 mps 680 mmHg 94%
    04:00 +18°C° 0 mm 2 mps 680 mmHg 93%
    05:00 +18°C° 0 mm 2 mps 680 mmHg 93%
    06:00 +17°C° 0 mm 2 mps 681 mmHg 93%
    07:00 +19°C° 0 mm 2 mps 681 mmHg 83%
    08:00 +21°C° 0 mm 3 mps 682 mmHg 73%
    09:00 +24°C° 0 mm 3 mps 683 mmHg 64%
    10:00 +25°C° 0 mm 3 mps 682 mmHg 60%
    11:00 +27°C° 0 mm 3 mps 682 mmHg 57%
    12:00 +28°C° 0 mm 4 mps 681 mmHg 53%
    13:00 +28°C° 0 mm 4 mps 681 mmHg 54%
    14:00 +28°C° 0 mm 4 mps 680 mmHg 55%
    15:00 +28°C° 0 mm 4 mps 680 mmHg 56%
    16:00 +26°C° 0 mm 3 mps 680 mmHg 64%
    17:00 +24°C° 0 mm 2 mps 680 mmHg 73%
    18:00 +21°C° 0 mm 2 mps 680 mmHg 81%
    19:00 +20°C° 0 mm 2 mps 680 mmHg 85%
    20:00 +20°C° 0 mm 2 mps 681 mmHg 89%
    21:00 +19°C° 0 mm 2 mps 681 mmHg 92%
    22:00 +19°C° 0 mm 2 mps 681 mmHg 93%
    23:00 +18°C° 0 mm 2 mps 681 mmHg 94%
    Show more